| time (UTC) | temp C | wind direction | speed KPH | gust KPH | rain 1hr cm | rain 24hr cm | rain mn cm | humidity % | barometer mb |
| 20260507024206 | 26 | 231 | 3.2 | 8.0 | 0.00 | 0.00 | 0.00 | 40 | 1120.8 |
| 20260507023701 | 26 | 229 | 3.2 | 11.3 | 0.00 | 0.00 | 0.00 | 40 | 1120.7 |
| 20260507023159 | 26 | 233 | 3.2 | 4.8 | 0.00 | 0.00 | 0.00 | 40 | 1120.4 |
| 20260507022656 | 26 | 239 | 4.8 | 8.0 | 0.00 | 0.00 | 0.00 | 40 | 1120.8 |
| 20260507022152 | 26 | 236 | 4.8 | 8.0 | 0.00 | 0.00 | 0.00 | 40 | 1120.3 |
| 20260507021648 | 26 | 226 | 4.8 | 8.0 | 0.00 | 0.00 | 0.00 | 40 | 1120.2 |
| 20260507021143 | 26 | 250 | 4.8 | 4.8 | 0.00 | 0.00 | 0.00 | 39 | 1120.4 |
| 20260507020642 | 26 | 219 | 3.2 | 4.8 | 0.00 | 0.00 | 0.00 | 38 | 1120.3 |
| 20260507020138 | 26 | 168 | 4.8 | 4.8 | 0.00 | 0.00 | 0.00 | 38 | 1120.1 |
| 20260507015637 | 26 | 228 | 1.6 | 3.2 | 0.00 | 0.00 | 0.00 | 38 | 1120.0 |
| 20260507015134 | 26 | 208 | 1.6 | 3.2 | 0.00 | 0.00 | 0.00 | 36 | 1120.0 |
| 20260507014630 | 26 | 214 | 4.8 | 4.8 | 0.00 | 0.00 | 0.00 | 35 | 1119.8 |
| 20260507014126 | 26 | 213 | 4.8 | 8.0 | 0.00 | 0.00 | 0.00 | 34 | 1119.9 |
| 20260507013623 | 26 | 232 | 4.8 | 8.0 | 0.00 | 0.00 | 0.00 | 33 | 1119.7 |
| 20260507013120 | 26 | 193 | 3.2 | 8.0 | 0.00 | 0.00 | 0.00 | 33 | 1119.7 |
| 20260507012617 | 27 | 218 | 3.2 | 9.7 | 0.00 | 0.00 | 0.00 | 33 | 1119.8 |
| 20260507012113 | 27 | 192 | 1.6 | 8.0 | 0.00 | 0.00 | 0.00 | 33 | 1119.7 |
| 20260507011611 | 27 | 222 | 4.8 | 8.0 | 0.00 | 0.00 | 0.00 | 33 | 1119.6 |
| 20260507011107 | 27 | 236 | 4.8 | 8.0 | 0.00 | 0.00 | 0.00 | 33 | 1119.4 |
| 20260507010602 | 27 | 218 | 6.4 | 11.3 | 0.00 | 0.00 | 0.00 | 32 | 1119.3 |
| 20260507010059 | 27 | 247 | 3.2 | 11.3 | 0.00 | 0.00 | 0.00 | 32 | 1119.3 |
| 20260507005556 | 27 | 192 | 6.4 | 11.3 | 0.00 | 0.00 | 0.00 | 32 | 1119.2 |
| 20260507005052 | 27 | 243 | 4.8 | 14.5 | 0.00 | 0.00 | 0.00 | 32 | 1119.5 |
| 20260507004549 | 27 | 218 | 9.7 | 11.3 | 0.00 | 0.00 | 0.00 | 32 | 1119.2 |
| 20260507004046 | 27 | 239 | 8.0 | 12.9 | 0.00 | 0.00 | 0.00 | 32 | 1119.2 |
| 20260507003542 | 28 | 181 | 4.8 | 16.1 | 0.00 | 0.00 | 0.00 | 32 | 1119.1 |
| 20260507003037 | 28 | 295 | 4.8 | 11.3 | 0.00 | 0.00 | 0.00 | 31 | 1119.2 |
| 20260507002535 | 28 | 292 | 3.2 | 12.9 | 0.00 | 0.00 | 0.00 | 30 | 1119.1 |
| 20260507002031 | 28 | 231 | 3.2 | 8.0 | 0.00 | 0.00 | 0.00 | 30 | 1119.1 |
| 20260507001527 | 28 | 275 | 3.2 | 12.9 | 0.00 | 0.00 | 0.00 | 30 | 1119.0 |
| 20260507001025 | 28 | 209 | 8.0 | 17.7 | 0.00 | 0.00 | 0.00 | 30 | 1119.0 |
| 20260507000520 | 28 | 196 | 9.7 | 17.7 | 0.00 | 0.00 | 0.00 | 30 | 1119.1 |
| 20260507000016 | 29 | 194 | 8.0 | 20.9 | 0.00 | 0.00 | 0.00 | 30 | 1118.9 |
| 20260506235514 | 29 | 254 | 8.0 | 12.9 | 0.00 | 0.00 | 0.00 | 30 | 1118.7 |
| 20260506235009 | 30 | 206 | 4.8 | 12.9 | 0.00 | 0.00 | 0.00 | 29 | 1118.9 |
| 20260506234507 | 30 | 205 | 8.0 | 11.3 | 0.00 | 0.00 | 0.00 | 29 | 1118.7 |
| 20260506234004 | 30 | 213 | 11.3 | 14.5 | 0.00 | 0.00 | 0.00 | 29 | 1118.9 |
| 20260506233500 | 30 | 190 | 6.4 | 14.5 | 0.00 | 0.00 | 0.00 | 29 | 1118.9 |
| 20260506232957 | 30 | 236 | 6.4 | 12.9 | 0.00 | 0.00 | 0.00 | 29 | 1118.4 |
| 20260506232454 | 30 | 234 | 6.4 | 16.1 | 0.00 | 0.00 | 0.00 | 28 | 1118.3 |
| 20260506231949 | 30 | 316 | 8.0 | 11.3 | 0.00 | 0.00 | 0.00 | 28 | 1118.3 |
| 20260506231447 | 30 | 234 | 6.4 | 11.3 | 0.00 | 0.00 | 0.00 | 29 | 1118.5 |
| 20260506230944 | 30 | 238 | 3.2 | 11.3 | 0.00 | 0.00 | 0.00 | 29 | 1118.4 |
| 20260506230440 | 30 | 292 | 6.4 | 14.5 | 0.00 | 0.00 | 0.00 | 29 | 1118.5 |
| 20260506225937 | 31 | 171 | 3.2 | 9.7 | 0.00 | 0.00 | 0.00 | 29 | 1118.5 |
| 20260506225434 | 30 | 238 | 9.7 | 16.1 | 0.00 | 0.00 | 0.00 | 29 | 1118.3 |
| 20260506224931 | 31 | 266 | 6.4 | 12.9 | 0.00 | 0.00 | 0.00 | 28 | 1118.4 |
| 20260506224428 | 31 | 215 | 4.8 | 11.3 | 0.00 | 0.00 | 0.00 | 28 | 1118.4 |
| 20260506223925 | 31 | 231 | 8.0 | 11.3 | 0.00 | 0.00 | 0.00 | 29 | 1118.6 |
| 20260506223420 | 31 | 277 | 6.4 | 12.9 | 0.00 | 0.00 | 0.00 | 29 | 1118.5 |
| 20260506222918 | 31 | 248 | 3.2 | 9.7 | 0.00 | 0.00 | 0.00 | 28 | 1118.7 |
| 20260506222414 | 31 | 178 | 4.8 | 16.1 | 0.00 | 0.00 | 0.00 | 29 | 1118.6 |
| 20260506221911 | 31 | 231 | 4.8 | 9.7 | 0.00 | 0.00 | 0.00 | 29 | 1118.7 |
| 20260506221408 | 31 | 255 | 4.8 | 12.9 | 0.00 | 0.00 | 0.00 | 29 | 1118.6 |
| 20260506220906 | 31 | 250 | 11.3 | 16.1 | 0.00 | 0.00 | 0.00 | 29 | 1118.7 |
| 20260506220401 | 32 | 267 | 8.0 | 20.9 | 0.00 | 0.00 | 0.00 | 29 | 1118.9 |
| 20260506215853 | 31 | 263 | 4.8 | 11.3 | 0.00 | 0.00 | 0.00 | 29 | 1118.7 |
| 20260506215348 | 31 | 244 | 9.7 | 14.5 | 0.00 | 0.00 | 0.00 | 30 | 1119.0 |
| 20260506214845 | 31 | 260 | 4.8 | 12.9 | 0.00 | 0.00 | 0.00 | 30 | 1118.9 |
| 20260506214342 | 31 | 251 | 8.0 | 12.9 | 0.00 | 0.00 | 0.00 | 30 | 1119.0 |
| 20260506213840 | 31 | 132 | 6.4 | 11.3 | 0.00 | 0.00 | 0.00 | 31 | 1119.0 |
| 20260506213337 | 31 | 353 | 8.0 | 11.3 | 0.00 | 0.00 | 0.00 | 31 | 1119.1 |
| 20260506212833 | 32 | 232 | 3.2 | 8.0 | 0.00 | 0.00 | 0.00 | 30 | 1119.1 |
| 20260506212329 | 31 | 220 | 6.4 | 9.7 | 0.00 | 0.00 | 0.00 | 32 | 1119.1 |
| 20260506211819 | 32 | 277 | 6.4 | 11.3 | 0.00 | 0.00 | 0.00 | 30 | 1119.1 |
| 20260506211315 | 32 | 271 | 4.8 | 14.5 | 0.00 | 0.00 | 0.00 | 30 | 1119.2 |
| 20260506210812 | 31 | 275 | 3.2 | 9.7 | 0.00 | 0.00 | 0.00 | 31 | 1119.1 |
| 20260506210309 | 32 | 238 | 6.4 | 14.5 | 0.00 | 0.00 | 0.00 | 31 | 1119.1 |
| 20260506205807 | 32 | 264 | 6.4 | 8.0 | 0.00 | 0.00 | 0.00 | 31 | 1119.1 |
| 20260506205305 | 32 | 226 | 4.8 | 11.3 | 0.00 | 0.00 | 0.00 | 31 | 1119.3 |
| 20260506204758 | 31 | 271 | 9.7 | 12.9 | 0.00 | 0.00 | 0.00 | 31 | 1119.3 |
| 20260506204257 | 31 | 187 | 4.8 | 12.9 | 0.00 | 0.00 | 0.00 | 33 | 1119.4 |
| 20260506203754 | 31 | 287 | 1.6 | 14.5 | 0.00 | 0.00 | 0.00 | 33 | 1119.7 |
| 20260506203251 | 31 | 230 | 8.0 | 16.1 | 0.00 | 0.00 | 0.00 | 32 | 1119.5 |
| 20260506202748 | 31 | 234 | 4.8 | 8.0 | 0.00 | 0.00 | 0.00 | 32 | 1119.7 |
| 20260506202244 | 31 | 255 | 3.2 | 9.7 | 0.00 | 0.00 | 0.00 | 33 | 1119.8 |
| 20260506201741 | 31 | 86 | 3.2 | 9.7 | 0.00 | 0.00 | 0.00 | 33 | 1119.8 |
| 20260506201238 | 31 | 211 | 1.6 | 8.0 | 0.00 | 0.00 | 0.00 | 34 | 1119.8 |
| 20260506200735 | 31 | 259 | 8.0 | 11.3 | 0.00 | 0.00 | 0.00 | 34 | 1120.1 |
| 20260506200231 | 31 | 255 | 6.4 | 9.7 | 0.00 | 0.00 | 0.00 | 34 | 1120.1 |
| 20260506195728 | 31 | 248 | 3.2 | 11.3 | 0.00 | 0.00 | 0.00 | 34 | 1120.3 |
| 20260506195224 | 30 | 318 | 4.8 | 8.0 | 0.00 | 0.00 | 0.00 | 35 | 1120.1 |
| 20260506194721 | 30 | 262 | 8.0 | 9.7 | 0.00 | 0.00 | 0.00 | 37 | 1120.1 |
| 20260506194218 | 30 | 221 | 4.8 | 9.7 | 0.00 | 0.00 | 0.00 | 37 | 1120.3 |
| 20260506193716 | 31 | 190 | 8.0 | 11.3 | 0.00 | 0.00 | 0.00 | 35 | 1120.5 |
| 20260506193212 | 31 | 292 | 3.2 | 12.9 | 0.00 | 0.00 | 0.00 | 36 | 1120.7 |
| 20260506192710 | 30 | 229 | 6.4 | 12.9 | 0.00 | 0.00 | 0.00 | 37 | 1120.7 |
| 20260506192206 | 30 | 272 | 4.8 | 9.7 | 0.00 | 0.00 | 0.00 | 37 | 1120.8 |
| 20260506191703 | 30 | 205 | 3.2 | 11.3 | 0.00 | 0.00 | 0.00 | 39 | 1121.0 |
| 20260506191159 | 29 | 188 | 3.2 | 16.1 | 0.00 | 0.00 | 0.00 | 40 | 1121.1 |
| 20260506190656 | 30 | 240 | 4.8 | 4.8 | 0.00 | 0.00 | 0.00 | 37 | 1121.0 |
| 20260506190153 | 30 | 260 | 4.8 | 12.9 | 0.00 | 0.00 | 0.00 | 39 | 1121.2 |
| 20260506185650 | 30 | 272 | 11.3 | 12.9 | 0.00 | 0.00 | 0.00 | 39 | 1121.5 |
| 20260506185146 | 30 | 209 | 3.2 | 8.0 | 0.00 | 0.00 | 0.00 | 39 | 1121.4 |
| 20260506184644 | 30 | 248 | 4.8 | 8.0 | 0.00 | 0.00 | 0.00 | 37 | 1121.6 |
| 20260506184141 | 30 | 211 | 6.4 | 9.7 | 0.00 | 0.00 | 0.00 | 38 | 1121.7 |
| 20260506183637 | 30 | 224 | 1.6 | 4.8 | 0.00 | 0.00 | 0.00 | 37 | 1121.6 |
| 20260506183133 | 29 | 287 | 1.6 | 4.8 | 0.00 | 0.00 | 0.00 | 40 | 1121.6 |
| 20260506182631 | 29 | 314 | 4.8 | 11.3 | 0.00 | 0.00 | 0.00 | 41 | 1121.6 |
| 20260506182128 | 28 | 184 | 4.8 | 12.9 | 0.00 | 0.00 | 0.00 | 43 | 1121.7 |
| 20260506181626 | 30 | 241 | 4.8 | 4.8 | 0.00 | 0.00 | 0.00 | 39 | 1121.8 |
| 20260506181123 | 30 | 246 | 0.0 | 1.6 | 0.00 | 0.00 | 0.00 | 41 | 1121.9 |
| 20260506180619 | 28 | 244 | 0.0 | 3.2 | 0.00 | 0.00 | 0.00 | 44 | 1121.7 |
| 20260506180116 | 29 | 182 | 4.8 | 8.0 | 0.00 | 0.00 | 0.00 | 44 | 1122.0 |
| 20260506175612 | 29 | 196 | 3.2 | 8.0 | 0.00 | 0.00 | 0.00 | 43 | 1121.8 |
| 20260506175108 | 28 | 256 | 3.2 | 12.9 | 0.00 | 0.00 | 0.00 | 44 | 1122.0 |
| 20260506174607 | 28 | 212 | 4.8 | 8.0 | 0.00 | 0.00 | 0.00 | 45 | 1122.1 |
| 20260506174103 | 28 | 265 | 3.2 | 9.7 | 0.00 | 0.00 | 0.00 | 44 | 1122.0 |
| 20260506173601 | 28 | 236 | 0.0 | 3.2 | 0.00 | 0.00 | 0.00 | 45 | 1122.1 |
| 20260506173058 | 28 | 271 | 1.6 | 3.2 | 0.00 | 0.00 | 0.00 | 45 | 1122.5 |
| 20260506172555 | 28 | 167 | 6.4 | 9.7 | 0.00 | 0.00 | 0.00 | 45 | 1122.4 |
| 20260506172051 | 27 | 271 | 3.2 | 8.0 | 0.00 | 0.00 | 0.00 | 46 | 1122.5 |
| 20260506171549 | 27 | 209 | 3.2 | 11.3 | 0.00 | 0.00 | 0.00 | 48 | 1122.5 |
| 20260506171046 | 27 | 213 | 6.4 | 9.7 | 0.00 | 0.00 | 0.00 | 48 | 1122.6 |
| 20260506170543 | 27 | 294 | 4.8 | 9.7 | 0.00 | 0.00 | 0.00 | 47 | 1122.5 |
| 20260506170035 | 27 | 227 | 6.4 | 9.7 | 0.00 | 0.00 | 0.00 | 47 | 1122.7 |
| 20260506165533 | 27 | 262 | 1.6 | 9.7 | 0.00 | 0.00 | 0.00 | 48 | 1122.7 |
| 20260506165029 | 27 | 263 | 4.8 | 4.8 | 0.00 | 0.00 | 0.00 | 47 | 1122.6 |
| 20260506164527 | 27 | 226 | 8.0 | 9.7 | 0.00 | 0.00 | 0.00 | 46 | 1122.8 |
| 20260506164024 | 26 | 149 | 1.6 | 8.0 | 0.00 | 0.00 | 0.00 | 47 | 1122.8 |
| 20260506163520 | 26 | 259 | 1.6 | 4.8 | 0.00 | 0.00 | 0.00 | 48 | 1123.1 |
| 20260506163016 | 26 | 119 | 4.8 | 8.0 | 0.00 | 0.00 | 0.00 | 47 | 1123.2 |
| 20260506162512 | 26 | 258 | 1.6 | 1.6 | 0.00 | 0.00 | 0.00 | 46 | 1122.9 |
| 20260506162009 | 26 | 237 | 3.2 | 8.0 | 0.00 | 0.00 | 0.00 | 46 | 1123.0 |
| 20260506161507 | 26 | 226 | 0.0 | 1.6 | 0.00 | 0.00 | 0.00 | 46 | 1123.0 |
| 20260506161003 | 26 | 264 | 3.2 | 4.8 | 0.00 | 0.00 | 0.00 | 47 | 1123.0 |
| 20260506160501 | 26 | 218 | 1.6 | 4.8 | 0.00 | 0.00 | 0.00 | 45 | 1122.9 |
| 20260506155958 | 26 | 271 | 1.6 | 1.6 | 0.00 | 0.00 | 0.00 | 47 | 1123.1 |
| 20260506155456 | 25 | 215 | 1.6 | 4.8 | 0.00 | 0.00 | 0.00 | 48 | 1123.1 |
| 20260506153622 | 25 | 66 | 1.6 | 3.2 | 0.00 | 0.00 | 0.00 | 52 | 1123.2 |
| 20260506153120 | 24 | 170 | 1.6 | 3.2 | 0.00 | 0.00 | 0.00 | 52 | 1123.0 |
| 20260506152617 | 24 | 263 | 1.6 | 8.0 | 0.00 | 0.00 | 0.00 | 52 | 1123.1 |
| 20260506152115 | 23 | 233 | 0.0 | 1.6 | 0.00 | 0.00 | 0.00 | 53 | 1123.0 |
| 20260506151613 | 23 | 212 | 6.4 | 8.0 | 0.00 | 0.00 | 0.00 | 54 | 1122.9 |
| 20260506151109 | 23 | 183 | 3.2 | 4.8 | 0.00 | 0.00 | 0.00 | 52 | 1123.1 |
| 20260506150606 | 23 | 251 | 1.6 | 4.8 | 0.00 | 0.00 | 0.00 | 54 | 1123.0 |
| 20260506145559 | 25 | 325 | 1.6 | 3.2 | 0.00 | 0.00 | 0.00 | 49 | 1123.1 |
| 20260506145057 | 23 | 292 | 1.6 | 4.8 | 0.00 | 0.00 | 0.00 | 53 | 1122.8 |
| 20260506144554 | 23 | 266 | 0.0 | 1.6 | 0.00 | 0.00 | 0.00 | 51 | 1123.0 |
| 20260506144051 | 23 | 273 | 0.0 | 1.6 | 0.00 | 0.00 | 0.00 | 52 | 1122.8 |
| 20260506143548 | 23 | 320 | 3.2 | 3.2 | 0.00 | 0.00 | 0.00 | 53 | 1123.0 |
| 20260506143047 | 22 | 274 | 1.6 | 1.6 | 0.00 | 0.00 | 0.00 | 51 | 1122.9 |
| 20260506142544 | 22 | 247 | 1.6 | 3.2 | 0.00 | 0.00 | 0.00 | 53 | 1122.9 |
| 20260506142042 | 21 | 257 | 0.0 | 1.6 | 0.00 | 0.00 | 0.00 | 55 | 1123.0 |
| 20260506141539 | 21 | 309 | 1.6 | 4.8 | 0.00 | 0.00 | 0.00 | 56 | 1123.2 |
| 20260506141038 | 21 | 266 | 1.6 | 4.8 | 0.00 | 0.00 | 0.00 | 56 | 1123.0 |
| 20260506140534 | 20 | 327 | 1.6 | 3.2 | 0.00 | 0.00 | 0.00 | 57 | 1123.1 |
| 20260506140032 | 20 | 270 | 1.6 | 3.2 | 0.00 | 0.00 | 0.00 | 56 | 1122.9 |
| 20260506135529 | 20 | 308 | 1.6 | 4.8 | 0.00 | 0.00 | 0.00 | 57 | 1122.8 |
| 20260506135025 | 20 | 353 | 3.2 | 4.8 | 0.00 | 0.00 | 0.00 | 59 | 1123.0 |
| 20260506134521 | 20 | 322 | 1.6 | 4.8 | 0.00 | 0.00 | 0.00 | 60 | 1122.9 |
| 20260506134017 | 19 | 276 | 1.6 | 1.6 | 0.00 | 0.00 | 0.00 | 59 | 1122.9 |
| 20260506133515 | 19 | 281 | 1.6 | 1.6 | 0.00 | 0.00 | 0.00 | 60 | 1123.0 |
| 20260506133012 | 18 | 277 | 1.6 | 1.6 | 0.00 | 0.00 | 0.00 | 62 | 1122.9 |
| 20260506132509 | 17 | 275 | 1.6 | 3.2 | 0.00 | 0.00 | 0.00 | 64 | 1122.8 |
| 20260506132006 | 17 | 261 | 0.0 | 1.6 | 0.00 | 0.00 | 0.00 | 64 | 1122.8 |
| 20260506131503 | 17 | 296 | 1.6 | 1.6 | 0.00 | 0.00 | 0.00 | 65 | 1122.6 |
| 20260506131000 | 16 | 330 | 3.2 | 4.8 | 0.00 | 0.00 | 0.00 | 66 | 1122.7 |
| 20260506130456 | 16 | 346 | 3.2 | 3.2 | 0.00 | 0.00 | 0.00 | 66 | 1122.8 |
| 20260506125954 | 16 | 313 | 0.0 | 3.2 | 0.00 | 0.00 | 0.00 | 67 | 1122.8 |
| 20260506125452 | 16 | 323 | 1.6 | 3.2 | 0.00 | 0.00 | 0.00 | 67 | 1122.9 |
| 20260506124949 | 16 | 301 | 3.2 | 8.0 | 0.00 | 0.00 | 0.00 | 67 | 1122.7 |
| 20260506124447 | 16 | 283 | 1.6 | 1.6 | 0.00 | 0.00 | 0.00 | 68 | 1122.6 |
| 20260506123945 | 15 | 307 | 3.2 | 3.2 | 0.00 | 0.00 | 0.00 | 69 | 1122.8 |
| 20260506123443 | 15 | 339 | 1.6 | 3.2 | 0.00 | 0.00 | 0.00 | 71 | 1122.8 |
| 20260506122940 | 15 | 344 | 1.6 | 3.2 | 0.00 | 0.00 | 0.00 | 72 | 1122.7 |
| 20260506122437 | 15 | 305 | 3.2 | 3.2 | 0.00 | 0.00 | 0.00 | 73 | 1122.5 |
| 20260506121935 | 15 | 267 | 0.0 | 1.6 | 0.00 | 0.00 | 0.00 | 74 | 1122.8 |
| 20260506121432 | 15 | 275 | 1.6 | 3.2 | 0.00 | 0.00 | 0.00 | 74 | 1122.6 |
| 20260506120929 | 15 | 266 | 0.0 | 1.6 | 0.00 | 0.00 | 0.00 | 74 | 1122.5 |
| 20260506120426 | 15 | 273 | 0.0 | 3.2 | 0.00 | 0.00 | 0.00 | 74 | 1122.4 |
| 20260506115923 | 15 | 280 | 1.6 | 3.2 | 0.00 | 0.00 | 0.00 | 73 | 1122.6 |
| 20260506115421 | 15 | 280 | 1.6 | 1.6 | 0.00 | 0.00 | 0.00 | 73 | 1122.1 |
| 20260506114920 | 15 | 277 | 1.6 | 3.2 | 0.00 | 0.00 | 0.00 | 73 | 1122.5 |
| 20260506114417 | 15 | 286 | 1.6 | 3.2 | 0.00 | 0.00 | 0.00 | 72 | 1122.2 |
| 20260506113915 | 15 | 269 | 0.0 | 1.6 | 0.00 | 0.00 | 0.00 | 72 | 1122.2 |
| 20260506113412 | 15 | 277 | 0.0 | 3.2 | 0.00 | 0.00 | 0.00 | 72 | 1122.1 |
| 20260506112909 | 15 | 267 | 0.0 | 1.6 | 0.00 | 0.00 | 0.00 | 71 | 1122.2 |
| 20260506112407 | 15 | 265 | 0.0 | 1.6 | 0.00 | 0.00 | 0.00 | 71 | 1122.0 |
| 20260506111904 | 15 | 272 | 0.0 | 1.6 | 0.00 | 0.00 | 0.00 | 71 | 1122.1 |
| 20260506111402 | 15 | 283 | 0.0 | 1.6 | 0.00 | 0.00 | 0.00 | 71 | 1122.4 |
| 20260506110859 | 15 | 308 | 1.6 | 3.2 | 0.00 | 0.00 | 0.00 | 71 | 1122.1 |
| 20260506110356 | 15 | 273 | 0.0 | 1.6 | 0.00 | 0.00 | 0.00 | 71 | 1122.2 |
| 20260506105853 | 15 | 277 | 0.0 | 1.6 | 0.00 | 0.00 | 0.00 | 71 | 1121.9 |
| 20260506105349 | 15 | 267 | 0.0 | 1.6 | 0.00 | 0.00 | 0.00 | 71 | 1122.1 |
| 20260506104847 | 15 | 270 | 1.6 | 1.6 | 0.00 | 0.00 | 0.00 | 72 | 1122.0 |
| 20260506104344 | 15 | 263 | 0.0 | 1.6 | 0.00 | 0.00 | 0.00 | 72 | 1121.9 |
| 20260506103842 | 15 | 264 | 0.0 | 1.6 | 0.00 | 0.00 | 0.00 | 72 | 1121.8 |
| 20260506103339 | 15 | 264 | 0.0 | 1.6 | 0.00 | 0.00 | 0.00 | 72 | 1121.9 |
| 20260506102836 | 15 | 263 | 0.0 | 1.6 | 0.00 | 0.00 | 0.00 | 72 | 1122.2 |
| 20260506102334 | 15 | 263 | 0.0 | 1.6 | 0.00 | 0.00 | 0.00 | 72 | 1121.6 |
| 20260506101831 | 15 | 269 | 0.0 | 1.6 | 0.00 | 0.00 | 0.00 | 72 | 1121.5 |
| 20260506101327 | 15 | 270 | 1.6 | 1.6 | 0.00 | 0.00 | 0.00 | 72 | 1121.8 |
| 20260506100825 | 15 | 270 | 0.0 | 3.2 | 0.00 | 0.00 | 0.00 | 72 | 1121.8 |
| 20260506100323 | 16 | 261 | 0.0 | 1.6 | 0.00 | 0.00 | 0.00 | 72 | 1121.9 |
| 20260506095822 | 16 | 260 | 0.0 | 1.6 | 0.00 | 0.00 | 0.00 | 72 | 1121.8 |
| 20260506095318 | 16 | 278 | 0.0 | 1.6 | 0.00 | 0.00 | 0.00 | 74 | 1121.6 |
| 20260506094815 | 16 | 277 | 1.6 | 3.2 | 0.00 | 0.00 | 0.00 | 74 | 1121.8 |
| 20260506094314 | 16 | 276 | 1.6 | 3.2 | 0.00 | 0.00 | 0.00 | 73 | 1121.8 |
| 20260506093812 | 16 | 297 | 1.6 | 3.2 | 0.00 | 0.00 | 0.00 | 72 | 1121.8 |
| 20260506093308 | 16 | 271 | 1.6 | 3.2 | 0.00 | 0.00 | 0.00 | 71 | 1121.8 |
| 20260506092806 | 16 | 274 | 1.6 | 3.2 | 0.00 | 0.00 | 0.00 | 71 | 1121.8 |
| 20260506092306 | 16 | 269 | 0.0 | 1.6 | 0.00 | 0.00 | 0.00 | 70 | 1122.0 |
| 20260506091801 | 16 | 258 | 0.0 | 1.6 | 0.00 | 0.00 | 0.00 | 69 | 1121.9 |
| 20260506091258 | 16 | 285 | 1.6 | 1.6 | 0.00 | 0.00 | 0.00 | 69 | 1121.8 |
| 20260506090756 | 16 | 277 | 1.6 | 1.6 | 0.00 | 0.00 | 0.00 | 69 | 1121.7 |
| 20260506090253 | 16 | 269 | 0.0 | 3.2 | 0.00 | 0.00 | 0.00 | 69 | 1121.8 |
| 20260506085749 | 17 | 270 | 0.0 | 3.2 | 0.00 | 0.00 | 0.00 | 68 | 1122.0 |
| 20260506085246 | 17 | 273 | 1.6 | 3.2 | 0.00 | 0.00 | 0.00 | 68 | 1121.8 |
| 20260506084742 | 17 | 270 | 0.0 | 1.6 | 0.00 | 0.00 | 0.00 | 68 | 1121.7 |
| 20260506084239 | 17 | 278 | 1.6 | 3.2 | 0.00 | 0.00 | 0.00 | 67 | 1121.8 |
| 20260506083736 | 17 | 265 | 1.6 | 3.2 | 0.00 | 0.00 | 0.00 | 67 | 1121.7 |
| 20260506083234 | 17 | 269 | 1.6 | 3.2 | 0.00 | 0.00 | 0.00 | 66 | 1122.0 |
| 20260506082731 | 17 | 268 | 1.6 | 3.2 | 0.00 | 0.00 | 0.00 | 65 | 1122.0 |
| 20260506082226 | 17 | 266 | 0.0 | 1.6 | 0.00 | 0.00 | 0.00 | 65 | 1122.2 |
| 20260506081724 | 17 | 282 | 1.6 | 3.2 | 0.00 | 0.00 | 0.00 | 64 | 1122.0 |
| 20260506081221 | 17 | 276 | 1.6 | 3.2 | 0.00 | 0.00 | 0.00 | 64 | 1121.9 |
| 20260506080719 | 18 | 274 | 1.6 | 3.2 | 0.00 | 0.00 | 0.00 | 64 | 1121.9 |
| 20260506080215 | 17 | 264 | 0.0 | 1.6 | 0.00 | 0.00 | 0.00 | 64 | 1122.1 |
| 20260506073159 | 18 | 262 | 1.6 | 1.6 | 0.00 | 0.00 | 0.00 | 64 | 1122.0 |
| 20260506072656 | 18 | 261 | 0.0 | 0.0 | 0.00 | 0.00 | 0.00 | 64 | 1122.2 |
| 20260506072154 | 18 | 267 | 0.0 | 1.6 | 0.00 | 0.00 | 0.00 | 63 | 1122.1 |
| 20260506071651 | 18 | 261 | 0.0 | 1.6 | 0.00 | 0.00 | 0.00 | 63 | 1122.2 |
| 20260506071149 | 18 | 277 | 1.6 | 4.8 | 0.00 | 0.00 | 0.00 | 63 | 1122.5 |
| 20260506070645 | 18 | 264 | 0.0 | 3.2 | 0.00 | 0.00 | 0.00 | 63 | 1122.5 |
| 20260506070143 | 18 | 276 | 4.8 | 4.8 | 0.00 | 0.00 | 0.00 | 63 | 1122.6 |
| 20260506062120 | 18 | 276 | 1.6 | 3.2 | 0.00 | 0.00 | 0.00 | 63 | 1122.6 |
| 20260506061616 | 19 | 275 | 1.6 | 1.6 | 0.00 | 0.00 | 0.00 | 63 | 1122.6 |
| 20260506061114 | 19 | 296 | 1.6 | 3.2 | 0.00 | 0.00 | 0.00 | 62 | 1122.4 |
| 20260506060612 | 19 | 311 | 1.6 | 1.6 | 0.00 | 0.00 | 0.00 | 62 | 1122.5 |
| 20260506060108 | 19 | 262 | 0.0 | 1.6 | 0.00 | 0.00 | 0.00 | 63 | 1122.7 |
| 20260506051040 | 20 | 283 | 1.6 | 1.6 | 0.00 | 0.00 | 0.00 | 60 | 1122.6 |
| 20260506050538 | 20 | 284 | 1.6 | 3.2 | 0.00 | 0.00 | 0.00 | 59 | 1122.6 |
| 20260506045029 | 20 | 260 | 1.6 | 4.8 | 0.00 | 0.00 | 0.00 | 57 | 1122.4 |
| 20260506044527 | 20 | 272 | 1.6 | 3.2 | 0.00 | 0.00 | 0.00 | 56 | 1122.6 |
| 20260506044023 | 21 | 277 | 1.6 | 3.2 | 0.00 | 0.00 | 0.00 | 57 | 1122.5 |
| 20260506043520 | 21 | 270 | 1.6 | 4.8 | 0.00 | 0.00 | 0.00 | 57 | 1122.6 |
| 20260506043019 | 21 | 279 | 1.6 | 3.2 | 0.00 | 0.00 | 0.00 | 57 | 1122.4 |
| 20260506042518 | 21 | 265 | 0.0 | 1.6 | 0.00 | 0.00 | 0.00 | 57 | 1122.4 |
| 20260506042015 | 21 | 295 | 3.2 | 4.8 | 0.00 | 0.00 | 0.00 | 56 | 1122.2 |
| 20260506041514 | 21 | 261 | 1.6 | 3.2 | 0.00 | 0.00 | 0.00 | 55 | 1122.2 |
| 20260506041010 | 21 | 310 | 3.2 | 3.2 | 0.00 | 0.00 | 0.00 | 54 | 1122.2 |
| 20260506040508 | 21 | 332 | 1.6 | 4.8 | 0.00 | 0.00 | 0.00 | 52 | 1122.2 |
| 20260506040003 | 22 | 283 | 4.8 | 4.8 | 0.00 | 0.00 | 0.00 | 51 | 1122.2 |
| 20260506035501 | 22 | 259 | 1.6 | 8.0 | 0.00 | 0.00 | 0.00 | 49 | 1122.0 |
| 20260506034957 | 23 | 266 | 1.6 | 3.2 | 0.00 | 0.00 | 0.00 | 48 | 1122.0 |
| 20260506034455 | 23 | 264 | 1.6 | 4.8 | 0.00 | 0.00 | 0.00 | 47 | 1121.8 |
| 20260506033951 | 23 | 261 | 1.6 | 1.6 | 0.00 | 0.00 | 0.00 | 45 | 1121.8 |
| 20260506033449 | 23 | 238 | 0.0 | 1.6 | 0.00 | 0.00 | 0.00 | 46 | 1121.6 |
| 20260506032945 | 23 | 247 | 0.0 | 0.0 | 0.00 | 0.00 | 0.00 | 46 | 1121.7 |
| 20260506032443 | 23 | 251 | 0.0 | 1.6 | 0.00 | 0.00 | 0.00 | 46 | 1121.3 |
| 20260506031939 | 23 | 259 | 0.0 | 1.6 | 0.00 | 0.00 | 0.00 | 45 | 1121.6 |
| 20260506031437 | 23 | 256 | 1.6 | 1.6 | 0.00 | 0.00 | 0.00 | 46 | 1121.2 |
| 20260506030934 | 23 | 252 | 0.0 | 0.0 | 0.00 | 0.00 | 0.00 | 45 | 1121.1 |
| 20260506030432 | 23 | 253 | 0.0 | 0.0 | 0.00 | 0.00 | 0.00 | 45 | 1121.1 |
| 20260506025929 | 23 | 252 | 0.0 | 0.0 | 0.00 | 0.00 | 0.00 | 46 | 1121.2 |
| 20260506025426 | 23 | 253 | 0.0 | 0.0 | 0.00 | 0.00 | 0.00 | 46 | 1121.1 |
| 20260506024922 | 24 | 251 | 0.0 | 1.6 | 0.00 | 0.00 | 0.00 | 46 | 1121.1 |
| 20260506024419 | 25 | 234 | 0.0 | 0.0 | 0.00 | 0.00 | 0.00 | 43 | 1120.9 |